Location: ??????????
(44.2167°N, 135.5333°E)
Time: 15:25:11
(UTC+00:00)

Cosmos 1733 Rocket - Pass Details

Date: 15 June 2025
Orbit: 596 x 622 km, 82.5° (Epoch: 16 July)

Event Time Altitude Azimuth Distance (km) Brightness Sun altitude
Rises 13:47:05 0° 350° (N) 2,894 8.0 -20.5°
Reaches altitude 10° 13:49:19 10° 350° (N) 1,981 6.8 -20.6°
Maximum altitude 13:53:43 83° 263° (W) 620 2.9 -20.8°
Enters shadow 13:54:33 57° 184° (S) 717 3.0 -20.9°
